Date String (YYYY-MM-DD hh:mm:ss) UTC,Instrument flags,Ambient pressure (hPa),Sample flow (lpm),Bypass flow (lpm),Sample temperature (°C),Ambient temperature (°C),ASC tube jacket temperature (°C),LED temperature (°C),Box temperature (°C),Sample RH (%),Span deviation,Mass concentration (μg/m³),Mass concentration (μg/m³),Mass concentration (μg/m³)
DateTimeUTC,F1_M11,P_M11,Q1_M11,Q2_M11,T1_M11,T2_M11,T3_M11,T4_M11,T5_M11,U1_M11,ZSPAN_M11,X0_M11,X2_M11,X1_M11
2022-06-29 08:00:00,,0829.1,5.01,0.00,29.4,27.7,00.0,38.2,31.2,15.6,0000.0,0007.65,0003.92,0003.47
2022-06-29 08:01:00,,0829.1,5.00,0.00,29.4,27.8,00.0,38.2,31.2,15.5,0000.0,0007.74,0003.95,0003.47
2022-06-29 08:02:00,,0829.1,5.00,0.00,29.4,28.0,00.0,38.2,31.3,15.5,0000.0,0007.74,0003.93,0003.47
2022-06-29 08:03:00,,0829.1,5.01,0.00,29.4,28.1,00.0,38.2,31.3,15.5,0000.0,0007.77,0003.94,0003.46
2022-06-29 08:04:00,,0829.1,4.99,0.00,29.4,28.2,00.0,38.2,31.3,15.5,0000.0,0007.87,0003.95,0003.45
2022-06-29 08:05:00,,0829.1,5.01,0.00,29.4,28.3,00.0,38.2,31.4,15.4,0000.0,0008.14,0003.94,0003.45
2022-06-29 08:06:00,,0829.1,5.00,0.00,29.4,28.4,00.0,38.2,31.4,15.4,0000.0,0007.67,0003.93,0003.45
2022-06-29 08:07:00,,0829.1,4.98,0.00,29.5,28.5,00.0,38.2,31.4,15.3,0000.0,0007.89,0003.92,0003.45
2022-06-29 08:08:00,,0829.1,5.01,0.00,29.5,28.5,00.0,38.2,31.4,15.3,0000.0,0007.99,0003.92,0003.45
2022-06-29 08:09:00,,0829.1,5.01,0.00,29.5,28.6,00.0,38.3,31.5,15.5,0000.0,0007.92,0003.91,0003.45
2022-06-29 08:10:00,,0829.0,4.98,0.00,29.6,28.6,00.0,38.3,31.5,15.6,0000.0,0007.86,0003.89,0003.45
2022-06-29 08:11:00,,0829.1,5.01,0.00,29.6,28.7,00.0,38.3,31.5,15.4,0000.0,0007.95,0003.89,0003.47
2022-06-29 08:12:00,,0829.1,5.01,0.00,29.6,28.7,00.0,38.3,31.6,15.3,0000.0,0008.18,0003.90,0003.47
2022-06-29 08:13:00,,0829.1,4.99,0.00,29.6,28.4,00.0,38.3,31.5,15.4,0000.0,0008.31,0003.90,0003.47
2022-06-29 08:14:00,,0829.1,5.00,0.00,29.6,27.6,00.0,38.2,31.3,15.5,0000.0,0008.30,0003.89,0003.48
2022-06-29 08:15:00,,0829.0,5.01,0.00,29.5,27.3,00.0,38.2,31.2,15.4,0000.0,0008.24,0003.88,0003.50
2022-06-29 08:16:00,,0829.0,5.00,0.00,29.4,27.3,00.0,38.2,31.2,15.3,0000.0,0008.06,0003.92,0003.50
2022-06-29 08:17:00,,0829.1,5.00,0.00,29.4,27.4,00.0,38.2,31.2,15.1,0000.0,0008.10,0003.94,0003.51
2022-06-29 08:18:00,,0829.1,4.99,0.00,29.4,27.5,00.0,38.2,31.2,15.1,0000.0,0008.27,0003.94,0003.51
2022-06-29 08:19:00,,0829.1,5.00,0.00,29.4,27.7,00.0,38.2,31.2,15.1,0000.0,0008.23,0003.96,0003.52
2022-06-29 08:20:00,,0829.1,5.00,0.00,29.4,27.8,00.0,38.2,31.3,15.1,0000.0,0008.53,0004.00,0003.52
2022-06-29 08:21:00,,0829.0,4.98,0.00,29.4,28.0,00.0,38.2,31.3,15.1,0000.0,0008.70,0004.01,0003.53
2022-06-29 08:22:00,,0829.0,5.00,0.00,29.4,28.1,00.0,38.2,31.3,15.0,0000.0,0008.64,0003.99,0003.53
2022-06-29 08:23:00,,0829.0,5.01,0.00,29.4,28.2,00.0,38.2,31.3,15.0,0000.0,0008.39,0003.97,0003.53
2022-06-29 08:24:00,,0829.0,5.00,0.00,29.4,28.3,00.0,38.2,31.4,15.0,0000.0,0008.13,0003.97,0003.53
2022-06-29 08:25:00,,0829.0,5.00,0.00,29.5,28.4,00.0,38.2,31.4,15.0,0000.0,0008.09,0003.97,0003.52
2022-06-29 08:26:00,,0829.1,5.01,0.00,29.5,28.4,00.0,38.2,31.4,15.0,0000.0,0008.06,0003.96,0003.52
2022-06-29 08:27:00,,0829.1,4.99,0.00,29.5,28.5,00.0,38.3,31.5,14.9,0000.0,0008.04,0003.95,0003.53
2022-06-29 08:28:00,,0829.0,5.01,0.00,29.5,28.6,00.0,38.3,31.5,14.9,0000.0,0007.76,0003.94,0003.53
2022-06-29 08:29:00,,0829.0,4.99,0.00,29.6,28.6,00.0,38.3,31.5,14.8,0000.0,0007.30,0003.93,0003.53
2022-06-29 08:30:00,,0829.0,4.99,0.00,29.6,28.7,00.0,38.3,31.6,14.8,0000.0,0006.99,0003.89,0003.52
2022-06-29 08:31:00,,0829.0,5.00,0.00,29.6,28.7,00.0,38.3,31.6,14.9,0000.0,0006.51,0003.88,0003.52
2022-06-29 08:32:00,,0829.0,5.01,0.00,29.6,28.1,00.0,38.3,31.4,14.9,0000.0,0006.36,0003.89,0003.52
2022-06-29 08:33:00,,0829.0,5.01,0.00,29.5,27.4,00.0,38.2,31.2,14.9,0000.0,0006.29,0003.88,0003.52
2022-06-29 08:34:00,,0829.0,5.00,0.00,29.5,27.3,00.0,38.2,31.2,14.9,0000.0,0006.14,0003.87,0003.52
2022-06-29 08:35:00,,0829.1,4.99,0.00,29.4,27.4,00.0,38.2,31.2,15.1,0000.0,0006.17,0003.85,0003.52
2022-06-29 08:36:00,,0829.1,5.01,0.00,29.4,27.5,00.0,38.2,31.2,15.5,0000.0,0006.36,0003.87,0003.52
2022-06-29 08:37:00,,0829.0,5.01,0.00,29.4,27.6,00.0,38.2,31.2,15.3,0000.0,0006.58,0003.88,0003.52
2022-06-29 08:38:00,,0829.0,5.00,0.00,29.4,27.8,00.0,38.2,31.2,15.1,0000.0,0006.75,0003.90,0003.52
2022-06-29 08:39:00,,0829.0,5.00,0.00,29.4,27.9,00.0,38.2,31.3,15.2,0000.0,0006.84,0003.91,0003.52
2022-06-29 08:40:00,,0829.0,4.99,0.00,29.4,28.0,00.0,38.2,31.3,15.3,0000.0,0006.80,0003.92,0003.52
2022-06-29 08:41:00,,0829.0,5.00,0.00,29.4,28.1,00.0,38.2,31.3,15.3,0000.0,0006.78,0003.94,0003.52
2022-06-29 08:42:00,,0829.0,5.00,0.00,29.4,28.2,00.0,38.2,31.4,15.2,0000.0,0006.74,0003.92,0003.51
2022-06-29 08:43:00,,0829.0,5.01,0.00,29.5,28.3,00.0,38.2,31.4,15.2,0000.0,0007.09,0003.89,0003.49
2022-06-29 08:44:00,,0829.0,5.00,0.00,29.5,28.4,00.0,38.2,31.4,15.2,0000.0,0008.75,0003.89,0003.47
2022-06-29 08:45:00,,0829.0,5.01,0.00,29.5,28.5,00.0,38.3,31.5,15.2,0000.0,0009.43,0003.93,0003.46
2022-06-29 08:46:00,,0829.1,5.00,0.00,29.5,28.6,00.0,38.3,31.5,15.1,0000.0,0010.26,0003.92,0003.45
2022-06-29 08:47:00,,0829.0,4.99,0.00,29.6,28.6,00.0,38.3,31.5,15.1,0000.0,0010.77,0003.89,0003.44
2022-06-29 08:48:00,,0829.1,5.01,0.00,29.6,28.7,00.0,38.3,31.6,15.2,0000.0,0011.64,0003.88,0003.42
2022-06-29 08:49:00,,0829.1,4.99,0.00,29.6,28.7,00.0,38.3,31.6,15.3,0000.0,0011.95,0003.83,0003.41
2022-06-29 08:50:00,,0829.1,5.00,0.00,29.6,28.8,00.0,38.3,31.6,15.4,0000.0,0012.50,0003.81,0003.39
2022-06-29 08:51:00,,0829.1,5.01,0.00,29.7,28.7,00.0,38.3,31.6,15.5,0000.0,0012.50,0003.78,0003.37
2022-06-29 08:52:00,,0829.0,5.01,0.00,29.6,27.9,00.0,38.3,31.4,15.3,0000.0,0012.42,0003.75,0003.35
2022-06-29 08:53:00,,0829.1,5.00,0.00,29.6,27.4,00.0,38.3,31.3,15.2,0000.0,0012.58,0003.77,0003.36
2022-06-29 08:54:00,,0829.1,5.00,0.00,29.5,27.4,00.0,38.3,31.2,15.3,0000.0,0012.54,0003.76,0003.36
2022-06-29 08:55:00,,0829.2,5.00,0.00,29.5,27.4,00.0,38.3,31.2,15.5,0000.0,0011.23,0003.77,0003.36
2022-06-29 08:56:00,,0829.2,5.00,0.00,29.4,27.5,00.0,38.2,31.2,15.7,0000.0,0010.61,0003.76,0003.36
2022-06-29 08:57:00,,0829.2,5.01,0.00,29.4,27.7,00.0,38.2,31.2,15.7,0000.0,0009.80,0003.77,0003.37
2022-06-29 08:58:00,,0829.2,5.00,0.00,29.4,27.8,00.0,38.2,31.3,15.5,0000.0,0009.19,0003.77,0003.37
2022-06-29 08:59:00,,0829.2,4.99,0.00,29.4,28.0,00.0,38.2,31.3,15.4,0000.0,0008.44,0003.74,0003.37
